Location: Dannhausen
(51.8650°N, 10.1026°E)
Time: 02:03:31
(UTC+00:00)

Cosmos 2233 Rocket - Pass Details

Date: 11 August 2020
Orbit: 952 x 992 km, 82.9° (Epoch: 26 September)

Event Time Altitude Azimuth Distance (km) Brightness Sun altitude
Exits shadow 20:57:40 17° 109° (ESE) 2,283 5.5 -16.0°
Maximum altitude 21:00:07 21° 79° (E) 2,059 5.5 -16.2°
Drops below altitude 10° 21:04:40 10° 33° (NNE) 2,766 6.6 -16.6°
Sets 21:07:47 0° 19° (NNE) 3,718 7.6 -16.9°
